カタログに戻る

FENGYUN 1C DEB

運用中SSO
NORAD 30527·DEBRIS·🇨🇳 China

打ち上げ May 10, 1999 から Taiyuan Satellite Launch Center

Loading…

次のパス (今後24時間)

TLE

最新Source: Space-Track

元期: Sep 14, 2026, 14:26 UTC

1 30527U 99025AJR 26257.60188630  .00000828  00000-0  11489-2 0  9999
2 30527 100.0436 300.3046 0408564 289.7350 226.9760 13.31557285950275

AllMySatでFENGYUN 1C DEBをリアルタイム追跡

Download on the App Store